This demonstration page uses our WeatherBlox Daily Observations layout. Learn more.

Left ArrowRight Arrow

Hourly Observations for March 4, 2022

Temp ( °F °C ) Dew Point ( °F °C ) Humidity (%) Winds ( mph kmh ) Pressure ( in mb ) Visibility ( mi km ) Precip ( " mm )
12:56 am 00:56 Clear 33 0.6 24 -4.4 70 70 E 13 20 30.09 1019 10 16 0.00 0.00
1:56 am 01:56 Clear 30 -1.1 24 -4.4 79 79 E 10 17 30.07 1018 10 16 0.00 0.00
2:56 am 02:56 Clear 31 -0.6 25 -3.9 79 79 E 14 22 30.03 1017 10 16 0.00 0.00
3:56 am 03:56 Clear 29 -1.7 25 -3.9 85 85 E 12 19 29.99 1016 10 16 0.00 0.00
4:56 am 04:56 Clear 30 -1.1 27 -2.8 88 88 E 10 17 29.98 1015 10 16 0.00 0.00
5:56 am 05:56 Clear 31 -0.6 28 -2.2 89 89 ESE 14 22 29.96 1015 10 16 0.00 0.00
6:56 am 06:56 Clear 31 -0.6 28 -2.2 89 89 ESE 13 20 29.94 1014 9 14 0.00 0.00
7:56 am 07:56 Sunny with Mist and Fog 30 -1.1 28 -2.2 92 92 E 7 11 29.95 1014 6 10 0.00 0.00
8:56 am 08:56 Sunny 37 2.8 33 0.6 86 86 SE 13 20 29.92 1013 9 14 0.00 0.00
9:56 am 09:56 Sunny 46 7.8 34 1.1 63 63 SSE 16 26 29.87 1011 10 16 0.00 0.00
10:56 am 10:56 Sunny 53 11.7 33 0.6 47 47 S 16 26 29.82 1010 10 16 0.00 0.00
11:56 am 11:56 Sunny 58 14.4 33 0.6 39 39 SSW 20 31 29.80 1009 10 16 0.00 0.00
12:56 pm 12:56 Sunny 60 15.6 32 0 35 35 SSW 17 28 29.78 1008 10 16 0.00 0.00
1:56 pm 13:56 Sunny 63 17.2 33 0.6 33 33 SSW 17 28 29.73 1007 10 16 0.00 0.00
2:56 pm 14:56 Sunny 66 18.9 33 0.6 29 29 SSW 22 35 29.69 1005 10 16 0.00 0.00
3:56 pm 15:56 Sunny 67 19.4 33 0.6 28 28 SW 14 22 29.67 1005 10 16 0.00 0.00
4:56 pm 16:56 Sunny 61 16.1 32 0 34 34 WNW 9 15 29.67 1005 10 16 0.00 0.00
5:56 pm 17:56 Sunny 57 13.9 31 -0.6 37 37 WNW 5 7 29.69 1005 10 16 0.00 0.00
6:56 pm 18:56 Clear 53 11.7 30 -1.1 41 41 Calm 29.69 1005 10 16 0.00 0.00
7:56 pm 19:56 Clear 51 10.6 30 -1.1 44 44 Calm 29.71 1006 10 16 0.00 0.00
8:56 pm 20:56 Hazy 47 8.3 29 -1.7 50 50 N 9 15 29.71 1006 6 10 0.00 0.00
9:56 pm 21:56 Clear 47 8.3 27 -2.8 46 46 N 12 19 29.69 1005 10 16 0.00 0.00
10:56 pm 22:56 Clear 46 7.8 28 -2.2 50 50 N 8 13 29.68 1005 10 16 0.00 0.00
11:56 pm 23:56 Mostly Clear 45 7.2 28 -2.2 52 52 N 15 24 29.67 1005 10 16 0.00 0.00

Powered by AerisWeather